Starlink 3572

operational
NORAD ID: 51879 Int'l Des: 2022-022 Owner: SPXS Country: US Constellation: starlink
LEOCIRCULAR

Über Starlink 3572

Beschreibung wird geladen...

Live-Position

3D-Globus wird geladen...

Nächste Überflüge

Höhenverlauf

Altitude vs Time

uPlot chart will show altitude changes over time

Zweizeiliger Elementsatz

1 51879U 22022AD 25354.29284030 .00000070 00000-0 22483-4 0 9995
2 51879 53.2194 355.5470 0001325 89.6657 270.4487 15.08838944211261
Epoch: 20. Dez. 2025 • Age: 17 hours

Aktueller Status

Höhe 550.3 km
Geschwindigkeit 7.59 km/s
Subsatellitenpunkt -32.01°S, 130.22°W
Startdatum 3. März 2022
Alter 3.8 years
Typ internet

Technische Details

Klassifizierung Payload
Masse 297.00 kg
Trockenmasse 275.00 kg
Gesamtmasse 297.00 kg
Länge 0.20 m
Durchmesser 2.80 m
Spannweite 9.00 m
Form Box + pan
Hersteller SPXS
Bus-Typ Starlink
Phasenstatus In Orbit
Besitzer/Staat SPXS/US

Große Konstellationen

Loading constellations...